Home > Time Zones > World Clock > Weather > Egypt > Cairo > Past weeks

Flag for Egypt Weather past 2 weeks in Cairo, Egypt

Now
97 °F

Sunny.


Feels Like: 95 °F
Forecast: 77 / 102 °F
Wind: 9 mph from North

Location: Cairo Airport

Current Time: Jul 31, 2015 at 3:50:09 PM

Latest Report: Jul 31, 2015 at 3:30 PM


Visibility: 10 mi

Pressure: 29.71 "Hg

Humidity: 23%

Dew point: 54 °F

Location of CairoLocation

Historic Weather in Cairo — Graph

°F

Cairo temperature yesterday

Maximum temperature yesterday: 99 °F (at 1:00 PM)
Minimum temperature yesterday: 77 °F (at 5:00 AM)
Average temperature yesterday: 88 °F

Past Weeks' High & Low Weather Summary

 TemperatureHumidityPressure
High106 °F (Jul 24, 1:00 PM)100% (Jul 17, 6:30 AM)29.86 "Hg (Jul 17, 6:30 AM)
Low73 °F (Jul 17, 6:00 AM)9% (Jul 24, 1:00 PM)29.68 "Hg (Jul 20, 2:00 PM)
Average87 °F50%29.75 "Hg
* Reported Jul 16 3:00 PM — Jul 31 3:00 PM, Cairo, Weather by CustomWeather, © 2015

Note: Actual official high and low records may vary slightly from our data, if they occured in-between our weather recording intervals... More about our weather records

Advertising

Cairo weather history for previous 24 hours

 ConditionsComfort  
Time TempWeatherWind HumidityBarometerVisibility
3:00 PM
Fri, Jul 31
99 °FSunny.7 mph31%29.71 "Hg10 mi
2:30 PM99 °FSunny.7 mph25%29.71 "Hg10 mi
2:00 PM99 °FSunny.7 mph25%29.71 "Hg10 mi
1:30 PM99 °FSunny.3 mph25%29.71 "Hg10 mi
1:00 PM99 °FSunny.3 mph25%29.74 "Hg10 mi
12:30 PM97 °FSunny.No wind25%29.74 "Hg10 mi
12:00 PM97 °FSunny.No wind20%29.74 "Hg10 mi
11:30 AM95 °FSunny.No wind25%29.74 "Hg10 mi
11:00 AM93 °FSunny.No wind28%29.74 "Hg10 mi
10:00 AM91 °FSunny.No wind34%29.74 "Hg10 mi
9:30 AM90 °FSunny.2 mph38%29.74 "Hg10 mi
9:00 AM90 °FSunny.2 mph38%29.74 "Hg10 mi
8:30 AM88 °FSunny.No wind40%29.74 "Hg10 mi
8:00 AM88 °FSunny.No wind49%29.74 "Hg10 mi
7:30 AM86 °FSunny.No wind55%29.74 "Hg10 mi
7:00 AM86 °FSunny.No wind55%29.74 "Hg10 mi
6:30 AM84 °FSunny.No wind58%29.74 "Hg10 mi
6:00 AM81 °FSunny.No wind66%29.74 "Hg10 mi
5:30 AM79 °FSunny.No wind65%29.74 "Hg10 mi
5:00 AM81 °FClear.No wind58%29.71 "Hg10 mi
4:30 AM81 °FClear.No wind58%29.71 "Hg10 mi
4:00 AM81 °FClear.No wind62%29.71 "Hg10 mi
3:30 AM81 °FClear.No wind62%29.71 "Hg10 mi
3:00 AM81 °FClear.No wind62%29.71 "Hg10 mi
2:30 AM81 °FClear.No wind66%29.71 "Hg10 mi
2:00 AM82 °FClear.No wind62%29.74 "Hg10 mi
1:30 AM82 °FClear.No wind62%29.74 "Hg10 mi
1:00 AM82 °FClear.3 mph62%29.74 "Hg10 mi
12:30 AM84 °FClear.No wind58%29.74 "Hg10 mi
12:00 AM84 °FClear.No wind58%29.74 "Hg10 mi
11:30 PM
Thu, Jul 30
84 °FClear.No wind62%29.74 "Hg10 mi
11:00 PM84 °FClear.5 mph62%29.74 "Hg10 mi
10:30 PM86 °FClear.5 mph59%29.74 "Hg10 mi
10:00 PM86 °FClear.6 mph59%29.77 "Hg10 mi
9:30 PM88 °FClear.7 mph59%29.77 "Hg10 mi
9:00 PM88 °FClear.8 mph59%29.74 "Hg10 mi
8:30 PM90 °FClear.8 mph49%29.74 "Hg10 mi
8:00 PM91 °FClear.8 mph46%29.71 "Hg10 mi
7:30 PM91 °FClear.8 mph46%29.71 "Hg10 mi
7:00 PM93 °FClear.7 mph41%29.71 "Hg10 mi
6:30 PM93 °FSunny.8 mph41%29.71 "Hg10 mi
6:00 PM95 °FSunny.8 mph36%29.71 "Hg10 mi
5:30 PM97 °FSunny.7 mph30%29.68 "Hg10 mi
5:00 PM97 °FSunny.8 mph30%29.68 "Hg10 mi
4:30 PM97 °FSunny.8 mph28%29.68 "Hg10 mi
4:00 PM97 °FSunny.8 mph32%29.68 "Hg10 mi
3:30 PM99 °FSunny.8 mph29%29.68 "Hg10 mi
3:00 PM99 °FSunny.7 mph29%29.68 "Hg10 mi
Weather by CustomWeather, © 2015

See weather overviewHow to use our weather pages